Weather History for Naples, FL

Change the Weather History Date:

Tuesday, January 31, 2012

  Actual Average Record
Temperature  
Mean Temperature 71 °F 65 °F  
Max Temperature 82 °F 75 °F 88 °F (1975)
Min Temperature 59 °F 55 °F 29 °F (1966)
Degree Days  
Heating Degree Days 0 2  
Month to date heating degree days 72 105  
Since 1 July heating degree days 97 180  
Cooling Degree Days 6 2  
Month to date cooling degree days 85 86  
Year to date cooling degree days 85 86  
Growing Degree Days 21 (Base 50)    
Moisture  
Dew Point 57 °F    
Average Humidity 63    
Maximum Humidity 84    
Minimum Humidity 42    
Precipitation  
Precipitation 0.00 in 0.08 in 0.33 in (1965)
Month to date precipitation 0.17 1.85  
Year to date precipitation 0.17 1.85  
Snow  
Snow 0.00 in - - ()
Month to date snowfall 0.0  
Since 1 July snowfall 0.0  
Snow Depth 0.00 in    
Sea Level Pressure  
Sea Level Pressure 30.25 in    
Wind  
Wind Speed 11 mph (ENE)    
Max Wind Speed 21 mph    
Max Gust Speed 29 mph    
Visibility 10 miles    
Events      
T = Trace of Precipitation, MM = Missing Value Source: NWS Daily Summary

Daily Weather History Graph

Daily Weather History Graph

Search for Another Location

Airport:

Trip Planner

Search our weather history database for the weather conditions in past years. The results will help you decide how hot, cold, wet, or windy it might be!

Date:

Astronomy

Jan. 31, 2012 Rise Set
Actual Time 7:12 AM EST 6:09 PM EST
Civil Twilight 6:47 AM EST 6:33 PM EST
Nautical Twilight 6:20 AM EST 7:01 PM EST
Astronomical Twilight 5:52 AM EST 7:28 PM EST
Moon 12:02 PM EST (1/31) 12:56 AM EST (1/31)
Length of Visible Light 11h 45m
Length of Day
10h 57m
First Quarter, 55% of the Moon is Illuminated
Jan 31
First Quarter
Feb 7
Full
Feb 14
Last Quarter
Feb 21
New
Feb 29
First Quarter

Hourly Weather History & Observations

Time (EST) Temp. Heat Index Dew Point Humidity Pressure Visibility Wind Dir Wind Speed Gust Speed Precip Events Conditions
12:53 AM 61.0 °F - 55.9 °F 83% 30.27 in 10.0 mi ENE 10.4 mph - N/A   Clear
1:53 AM 61.0 °F - 55.9 °F 83% 30.26 in 10.0 mi NE 9.2 mph - N/A   Clear
2:53 AM 60.1 °F - 55.0 °F 83% 30.26 in 10.0 mi ENE 8.1 mph - N/A   Clear
3:53 AM 60.1 °F - 55.0 °F 83% 30.25 in 10.0 mi NE 9.2 mph - N/A   Clear
4:53 AM 60.1 °F - 55.0 °F 83% 30.25 in 10.0 mi NE 10.4 mph - N/A   Clear
5:53 AM 60.1 °F - 55.0 °F 83% 30.25 in 10.0 mi ENE 11.5 mph - N/A   Clear
6:53 AM 60.1 °F - 55.0 °F 83% 30.28 in 10.0 mi ENE 10.4 mph - N/A   Clear
7:53 AM 62.1 °F - 55.9 °F 80% 30.28 in 10.0 mi ENE 13.8 mph - N/A   Clear
8:53 AM 66.0 °F - 57.0 °F 73% 30.29 in 10.0 mi ENE 13.8 mph - N/A   Clear
9:53 AM 71.6 °F - 57.2 °F 60% 30.30 in 10.0 mi ENE 16.1 mph 25.3 mph N/A   Clear
10:53 AM 75.0 °F - 57.0 °F 53% 30.29 in 10.0 mi ENE 17.3 mph 26.5 mph N/A   Clear
11:53 AM 78.1 °F - 57.9 °F 50% 30.27 in 10.0 mi ENE 11.5 mph - N/A   Clear
12:53 PM 80.1 °F 80.6 °F 57.9 °F 47% 30.25 in 10.0 mi ENE 10.4 mph 18.4 mph N/A   Clear
1:53 PM 81.0 °F 81.1 °F 57.9 °F 45% 30.22 in 10.0 mi East 6.9 mph - N/A   Clear
2:53 PM 81.0 °F 80.8 °F 55.9 °F 42% 30.19 in 10.0 mi East 10.4 mph 17.3 mph N/A   Scattered Clouds
3:53 PM 82.0 °F 81.7 °F 57.0 °F 42% 30.19 in 10.0 mi ENE 13.8 mph 19.6 mph N/A   Scattered Clouds
4:53 PM 80.1 °F 80.2 °F 55.9 °F 43% 30.19 in 10.0 mi ENE 13.8 mph - N/A   Partly Cloudy
5:53 PM 77.0 °F - 57.0 °F 50% 30.21 in 10.0 mi East 9.2 mph - N/A   Partly Cloudy
6:53 PM 73.0 °F - 57.0 °F 57% 30.22 in 10.0 mi East 8.1 mph - N/A   Clear
7:53 PM 71.1 °F - 57.9 °F 63% 30.24 in 10.0 mi East 10.4 mph - N/A   Clear
8:53 PM 68.0 °F - 59.0 °F 73% 30.25 in 10.0 mi East 9.2 mph - N/A   Clear
9:53 PM 66.0 °F - 59.0 °F 78% 30.25 in 10.0 mi ENE 6.9 mph - N/A   Clear
10:53 PM 64.9 °F - 59.0 °F 81% 30.25 in 10.0 mi ENE 8.1 mph - N/A   Clear
11:53 PM 64.0 °F - 57.9 °F 80% 30.24 in 10.0 mi ENE 8.1 mph - N/A   Clear